Find Starlink 5369

NORAD ID: 54837 Int'l Des: 2022-177 Owner: SPXS Country: US Constellation: starlink operational
LEOCIRCULAR

实时位置

正在加载3D地球...

关于 Starlink 5369

正在加载描述...

即将过境

Passes for default location (London). Set your location on the main map for personalized predictions.

高度历史

Loading altitude history...

两行轨道根数

1 54837U 22177T 26126.25002315 .01196122 00000-0 34475-2 0 9998
2 54837 42.9961 161.4851 0001483 283.5102 129.4453 15.89900567 5859
Epoch: May 6, 2026 • Age: 7 hours

当前状态

高度 312.4 km
速度 7.72 km/s
星下点 -41.23°S, 31.05°E
发射日期 Dec 28, 2022
运行时间 3.3 years
类型 internet

技术详情

分类 Payload
质量 305.00 kg
干质量 290.00 kg
总质量 305.00 kg
长度 0.20 m
直径 2.80 m
跨度 9.00 m
形状 Box + pan
制造商 SPXS
平台类型 Starlink
阶段状态 In Orbit
所有者/国家 SPXS/US

Most Searched